Flag Weather past 2 weeks in Citrus Heights, California, U.S.A.

Now
54 °F

Clear.


Feels Like: 54 °F
Forecast: 40 / 59 °F
Wind: No wind

Location: Mather Field

Current Time: Nov 22, 2014 at 7:56:54 PM

Latest Report: Nov 22, 2014 at 6:46 PM


Visibility: 7 mi

Pressure: 30.17 "Hg

Humidity: 100%

Dew point: 54 °F

Location of Citrus HeightsLocation

Historic Weather in Citrus Heights — Graph

°F

Citrus Heights temperature yesterday

Maximum temperature yesterday: 55 °F (at 12:45 PM)
Minimum temperature yesterday: 34 °F (at 8:45 AM)
Average temperature yesterday: 52 °F

Past Weeks' High & Low Weather Summary

 TemperatureHumidityPressure
High77 °F (Nov 9, 1:45 PM)100% (Nov 7, 10:55 PM)30.28 "Hg (Nov 7, 10:55 PM)
Low34 °F (Nov 21, 8:45 AM)36% (Nov 9, 1:45 PM)29.77 "Hg (Nov 10, 4:50 PM)
Average55 °F85%30.05 "Hg
* Reported Nov 7 5:45 PM — Nov 22 5:46 PM, Citrus Heights, Weather by CustomWeather, © 2014

Note: Actual official high and low records may vary slightly from our data, if they occured in-between our weather recording intervals... More about our weather records

Advertising

Citrus Heights weather history for previous 24 hours

 ConditionsComfort  
Time TempWeatherWind HumidityBarometerVisibility
5:46 PM
Nov 22
57 °FPassing clouds.No wind100%30.16 "Hg10 mi
4:50 PM57 °FPassing clouds.6 mph100%30.14 "Hg10 mi
2:50 PM57 °FPartly sunny.14 mph100%30.11 "Hg10 mi
1:46 PM55 °FMostly cloudy.15 mph100%30.10 "Hg10 mi
12:52 PM55 °FFog.13 mph100%30.10 "Hg6 mi
11:45 AM54 °FMostly cloudy.17 mph100%30.09 "Hg4 mi
10:55 AM54 °FLow clouds.15 mph100%30.10 "Hg3 mi
9:45 AM52 °FMostly cloudy.24 mph100%30.10 "Hg2 mi
7:45 AM52 °FFog.20 mph100%30.07 "Hg2 mi
6:45 AM52 °FFog.15 mph100%30.07 "Hg2 mi
5:45 AM54 °FOvercast.20 mph100%30.06 "Hg8 mi
4:45 AM52 °FOvercast.9 mph100%30.07 "Hg5 mi
3:45 AM54 °FOvercast.13 mph100%30.09 "Hg5 mi
2:45 AM54 °FOvercast.12 mph100%30.10 "Hg8 mi
11:20 PM
Nov 21
54 °FFog.9 mph100%30.14 "Hg5 mi
9:55 PM54 °FFog.7 mph100%30.13 "Hg5 mi
8:45 PM54 °FFog.3 mph100%30.13 "Hg5 mi
7:51 PM54 °FFog.No wind100%30.13 "Hg5 mi
Weather by CustomWeather, © 2014

See weather overviewHow to use our weather pages